Weather History for PAEN - November, 2013

Change the Weather History Date:

Wednesday, November 27, 2013

  Actual Average (WUND) Record (WUND)
Temperature  
Mean Temperature 27 °F -  
Max Temperature 30 °F - - (-1)
Min Temperature 21 °F - - (-1)
Degree Days  
Heating Degree Days 38    
Moisture  
Dew Point 26 °F    
Average Humidity 97    
Maximum Humidity 100    
Minimum Humidity 80    
Precipitation  
Precipitation 0.03 in - - ()
Sea Level Pressure  
Sea Level Pressure 29.80 in    
Wind  
Wind Speed 2 mph (ENE)    
Max Wind Speed 13 mph    
Max Gust Speed -    
Visibility 6 miles    
Events Snow    
Averages and records for this station are not official NWS values.
T = Trace of Precipitation, MM = Missing Value Source: NWS Daily Summary

Daily Weather History Graph

Daily Weather History Graph

Search for Another Location

Airport or City:

Trip Planner

Search our weather history database for the weather conditions in past years. The results will help you decide how hot, cold, wet, or windy it might be!

Date:

Astronomy

Nov. 27, 2013 Rise Set
Actual Time 9:37 AM AKST 4:07 PM AKST
Civil Twilight 8:42 AM AKST 5:02 PM AKST
Nautical Twilight 7:47 AM AKST 5:57 PM AKST
Astronomical Twilight 6:55 AM AKST 6:49 PM AKST
Moon 2:20 AM AKST (11/27) 2:11 PM AKST (11/27)
Length of Visible Light 8h 19m
Length of Day
6h 30m
Waning Crescent, 30% of the Moon is Illuminated
Nov 27
Waning Crescent
Dec 2
New
Dec 9
First Quarter
Dec 17
Full
Dec 25
Last Quarter

Hourly Weather History & Observations

Time (AKST) Temp. Windchill Dew Point Humidity Pressure Visibility Wind Dir Wind Speed Gust Speed Precip Events Conditions
12:26 AM 28.4 °F - 26.6 °F 93% 29.90 in 2.0 mi Calm Calm - 0.00 in Snow Light Snow
12:53 AM 28.0 °F - 27.0 °F 96% 29.90 in 2.5 mi Calm Calm - 0.00 in Snow Light Snow
1:08 AM 28.4 °F - 26.6 °F 93% 29.90 in 3.0 mi Calm Calm - 0.00 in Snow Light Snow
1:33 AM 26.6 °F - 26.6 °F 100% 29.89 in 2.0 mi Calm Calm - 0.00 in Snow Light Snow
1:53 AM 27.0 °F - 27.0 °F 100% 29.90 in 2.0 mi Calm Calm - 0.00 in Snow Light Snow
2:00 AM 26.6 °F - 26.6 °F 100% 29.89 in 3.0 mi Calm Calm - 0.00 in Snow Light Snow
2:15 AM 26.6 °F - 26.6 °F 100% 29.88 in 2.5 mi Calm Calm - 0.00 in Snow Light Snow
2:37 AM 26.6 °F - 26.6 °F 100% 29.88 in 3.0 mi Calm Calm - 0.00 in Snow Light Snow
3:25 AM 26.6 °F - 26.6 °F 100% 29.88 in 2.5 mi Calm Calm - 0.00 in Snow Light Snow
3:41 AM 26.6 °F - 26.6 °F 100% 29.87 in 2.0 mi Calm Calm - 0.00 in Snow Light Snow
3:53 AM 27.0 °F - 27.0 °F 100% 29.88 in 2.5 mi Calm Calm - 0.00 in Snow Light Snow
4:06 AM 26.6 °F - 26.6 °F 100% 29.87 in 3.0 mi Calm Calm - 0.00 in Snow Light Snow
4:53 AM 27.0 °F - 27.0 °F 100% 29.87 in 4.0 mi Calm Calm - 0.00 in Snow Light Snow
4:55 AM 26.6 °F - 26.6 °F 100% 29.86 in 4.0 mi Calm Calm - 0.00 in Snow Light Snow
5:14 AM 26.6 °F - 26.6 °F 100% 29.85 in 4.0 mi Calm Calm - 0.00 in Snow Light Snow
5:36 AM 26.6 °F - 26.6 °F 100% 29.85 in 5.0 mi Calm Calm - 0.00 in Snow Light Snow
5:53 AM 27.0 °F - 27.0 °F 100% 29.86 in 3.0 mi Calm Calm - 0.00 in   Overcast
6:03 AM 26.6 °F - 26.6 °F 100% 29.85 in 2.5 mi Calm Calm - 0.00 in Snow Light Snow
6:12 AM 26.6 °F - 26.6 °F 100% 29.84 in 6.0 mi Calm Calm - 0.00 in   Overcast
6:20 AM 26.6 °F - 26.6 °F 100% 29.84 in 10.0 mi Calm Calm - 0.00 in   Overcast
6:49 AM 26.6 °F 22.6 °F 26.6 °F 100% 29.84 in 2.5 mi SE 3.5 mph - 0.00 in Snow Light Snow
6:53 AM 27.0 °F 23.0 °F 27.0 °F 100% 29.85 in 2.5 mi SE 3.5 mph - 0.00 in Snow Light Snow
7:23 AM 26.6 °F - 26.6 °F 100% 29.84 in 2.5 mi Calm Calm - 0.00 in   Overcast
7:53 AM 27.0 °F - 27.0 °F 100% 29.84 in 7.0 mi Calm Calm - 0.00 in   Overcast
8:51 AM 28.4 °F - 26.6 °F 93% 29.83 in 10.0 mi Calm Calm - N/A   Overcast
8:53 AM 28.0 °F - 27.0 °F 96% 29.84 in 10.0 mi Calm Calm - N/A   Overcast
9:53 AM 28.0 °F - 27.0 °F 96% 29.82 in 10.0 mi Calm Calm - N/A   Overcast
10:53 AM 28.0 °F - 27.0 °F 96% 29.81 in 10.0 mi Calm Calm - N/A   Overcast
11:53 AM 28.0 °F 24.2 °F 28.0 °F 100% 29.80 in 10.0 mi South 3.5 mph - N/A   Overcast
12:53 PM 28.9 °F - 28.0 °F 96% 29.78 in 10.0 mi Calm Calm - 0.01 in   Overcast
1:29 PM 28.4 °F - 28.4 °F 100% 29.77 in 10.0 mi Calm Calm - 0.01 in   Overcast
1:53 PM 30.0 °F 26.5 °F 28.9 °F 96% 29.77 in 7.0 mi SE 3.5 mph - 0.01 in   Overcast
2:53 PM 28.9 °F 23.9 °F 28.9 °F 100% 29.75 in 3.0 mi SSE 4.6 mph - 0.01 in Snow Light Snow
3:53 PM 30.0 °F - 28.9 °F 96% 29.73 in 10.0 mi Calm Calm - 0.00 in   Overcast
4:53 PM 28.9 °F 23.9 °F 28.0 °F 96% 29.71 in 10.0 mi SE 4.6 mph - N/A   Overcast
5:53 PM 28.0 °F 24.2 °F 27.0 °F 96% 29.70 in 10.0 mi NNW 3.5 mph - N/A   Overcast
6:53 PM 24.1 °F 15.2 °F 24.1 °F 100% 29.70 in 10.0 mi NNW 8.1 mph - N/A   Mostly Cloudy
7:01 PM 26.6 °F 17.5 °F 26.6 °F 100% 29.69 in 10.0 mi NNW 9.2 mph - N/A   Mostly Cloudy
7:45 PM 26.6 °F 22.6 °F 26.6 °F 100% 29.69 in 9.0 mi North 3.5 mph - N/A   Overcast
7:53 PM 26.1 °F 20.5 °F 26.1 °F 100% 29.70 in 10.0 mi NNW 4.6 mph - N/A   Overcast
8:03 PM 28.4 °F 23.3 °F 28.4 °F 100% 29.69 in 3.0 mi North 4.6 mph - 0.00 in Snow Light Snow
8:07 PM 28.4 °F 22.2 °F 28.4 °F 100% 29.69 in 1.8 mi North 5.8 mph - 0.00 in Snow Light Snow
8:18 PM 28.4 °F 18.0 °F 26.6 °F 93% 29.69 in 1.5 mi NE 12.7 mph - 0.00 in Snow Light Snow
8:29 PM 26.6 °F 16.8 °F 24.8 °F 93% 29.70 in 1.8 mi NE 10.4 mph - 0.00 in Snow Light Snow
8:36 PM 28.4 °F 22.2 °F 24.8 °F 86% 29.70 in 3.0 mi NNE 5.8 mph - 0.00 in Snow Light Snow
8:53 PM 28.0 °F 22.8 °F 25.0 °F 88% 29.71 in 10.0 mi ENE 4.6 mph - 0.00 in   Overcast
9:53 PM 27.0 °F - 26.1 °F 96% 29.71 in 10.0 mi Calm Calm - N/A   Overcast
10:07 PM 26.6 °F - 26.6 °F 100% 29.71 in 10.0 mi Calm Calm - N/A   Overcast
10:36 PM 26.6 °F 19.1 °F 24.8 °F 93% 29.71 in 10.0 mi East 6.9 mph - N/A   Overcast
10:53 PM 26.1 °F 15.0 °F 21.0 °F 81% 29.73 in 10.0 mi East 12.7 mph - N/A   Overcast
11:23 PM 24.8 °F 16.1 °F 19.4 °F 80% 29.72 in 10.0 mi ENE 8.1 mph - N/A   Mostly Cloudy
11:53 PM 21.9 °F 9.8 °F 17.1 °F 82% 29.75 in - ENE 12.7 mph - N/A   Unknown